Weather History for Asheville, NC

Change the Weather History Date:

Thursday, October 29, 2009

  Actual Average Record
Temperature  
Mean Temperature 55 °F 52 °F  
Max Temperature 67 °F 65 °F 79 °F (1946)
Min Temperature 42 °F 40 °F 21 °F (1976)
Degree Days  
Heating Degree Days 10 13  
Month to date heating degree days 291 251  
Since 1 July heating degree days 314 308  
Cooling Degree Days 0 0  
Month to date cooling degree days 4 7  
Year to date cooling degree days 774 859  
Growing Degree Days 4 (Base 50)    
Moisture  
Dew Point 47 °F    
Average Humidity 79    
Maximum Humidity 100    
Minimum Humidity 58    
Precipitation  
Precipitation 0.00 in 0.09 in 2.16 in (1970)
Month to date precipitation 4.55 2.72  
Year to date precipitation 46.76 38.14  
Snow  
Snow 0.00 in 0.00 in 1.70 in (1908)
Month to date snowfall 0.0 0.0  
Since 1 July snowfall 0.0 0.0  
Since 1 September snowfall 0.0 0.0  
Snow Depth 0.00 in    
Sea Level Pressure  
Sea Level Pressure 30.18 in    
Wind  
Wind Speed 4 mph (South)    
Max Wind Speed 13 mph    
Max Gust Speed 17 mph    
Visibility 5 miles    
Events Fog    
T = Trace of Precipitation, MM = Missing Value Source: NWS Daily Summary

Daily Weather History Graph

Daily Weather History Graph

Search for Another Location

Airport:

Trip Planner

Search our weather history database for the weather conditions in past years. The results will help you decide how hot, cold, wet, or windy it might be!

Date:

Astronomy

Oct. 29, 2009 Rise Set
Actual Time 7:49 AM EDT 6:38 PM EDT
Civil Twilight 7:22 AM EDT 7:04 PM EDT
Nautical Twilight 6:53 AM EDT 7:34 PM EDT
Astronomical Twilight 6:23 AM EDT 8:03 PM EDT
Moon 4:11 PM EDT (10/29) 3:36 AM EDT (10/29)
Length of Visible Light 11h 41m
Length of Day
10h 48m
Waxing Gibbous, 82% of the Moon is Illuminated
Oct 29
Waxing Gibbous
Nov 2
Full
Nov 9
Last Quarter
Nov 16
New
Nov 24
First Quarter

Hourly Weather History & Observations

Time (EDT) Temp. Windchill Dew Point Humidity Pressure Visibility Wind Dir Wind Speed Gust Speed Precip Events Conditions
12:54 AM 50.0 °F - 48.0 °F 93% 30.09 in 10.0 mi NNW 3.5 mph - N/A   Clear
1:54 AM 48.9 °F - 48.0 °F 97% 30.10 in 10.0 mi Calm Calm - N/A   Clear
2:54 AM 46.0 °F - 45.0 °F 96% 30.11 in 10.0 mi Calm Calm - N/A   Clear
3:54 AM 44.1 °F - 43.0 °F 96% 30.11 in 1.5 mi Calm Calm - N/A   Partly Cloudy
3:56 AM 44.6 °F - 42.8 °F 93% 30.14 in 1.0 mi Calm Calm - N/A   Mist
4:05 AM 44.6 °F - 42.8 °F 93% 30.15 in 2.5 mi Calm Calm - N/A   Mostly Cloudy
4:12 AM 44.6 °F - 42.8 °F 93% 30.15 in 6.0 mi Calm Calm - N/A   Mostly Cloudy
4:21 AM 44.6 °F - 44.6 °F 100% 30.15 in 5.0 mi Calm Calm - N/A   Overcast
4:38 AM 44.6 °F - 44.6 °F 100% 30.14 in 1.8 mi Calm Calm - N/A   Mostly Cloudy
4:42 AM 44.6 °F - 44.6 °F 100% 30.14 in 1.0 mi Calm Calm - N/A   Mostly Cloudy
4:49 AM 44.6 °F - 44.6 °F 100% 30.15 in 0.5 mi Calm Calm - N/A Fog Fog
4:54 AM 44.1 °F 41.5 °F 43.0 °F 96% 30.12 in 0.5 mi SW 4.6 mph - N/A Fog Fog
5:07 AM 42.8 °F - 42.8 °F 100% 30.16 in 0.2 mi Calm Calm - N/A Fog Fog
5:26 AM 42.8 °F - 42.8 °F 100% 30.15 in 0.8 mi Calm Calm - N/A   Mostly Cloudy
5:29 AM 42.8 °F - 42.8 °F 100% 30.15 in 1.2 mi Calm Calm - N/A   Mostly Cloudy
5:31 AM 42.8 °F - 42.8 °F 100% 30.15 in 2.5 mi Calm Calm - N/A   Mostly Cloudy
5:34 AM 42.8 °F - 42.8 °F 100% 30.15 in 8.0 mi Calm Calm - N/A   Scattered Clouds
5:49 AM 42.8 °F 40.1 °F 41.0 °F 93% 30.16 in 1.2 mi SW 4.6 mph - N/A   Partly Cloudy
5:54 AM 42.1 °F 40.2 °F 42.1 °F 100% 30.13 in 0.5 mi WSW 3.5 mph - N/A Fog Fog
6:00 AM 42.8 °F 41.1 °F 42.8 °F 100% 30.17 in 0.2 mi SW 3.5 mph - N/A Fog Fog
6:11 AM 42.8 °F - 42.8 °F 100% 30.17 in 0.2 mi Calm Calm - N/A Fog Fog
6:20 AM 42.8 °F - 42.8 °F 100% 30.18 in 0.5 mi Calm Calm - N/A Fog Fog
6:54 AM 43.0 °F - 43.0 °F 100% 30.17 in 0.5 mi Calm Calm - N/A Fog Fog
7:09 AM 42.8 °F - 42.8 °F 100% 30.19 in 0.2 mi Calm Calm - N/A Fog Fog
7:54 AM 43.0 °F - 43.0 °F 100% 30.19 in 0.5 mi Calm Calm - N/A Fog Fog
8:03 AM 42.8 °F - 42.8 °F 100% 30.21 in 0.2 mi Calm Calm - N/A Fog Fog
8:19 AM 42.8 °F 41.1 °F 42.8 °F 100% 30.23 in 0.2 mi South 3.5 mph - N/A Fog Fog
8:44 AM 42.8 °F - 42.8 °F 100% 30.24 in 0.2 mi Calm Calm - N/A Fog Fog
8:54 AM 43.0 °F - 43.0 °F 100% 30.23 in 0.2 mi Calm Calm - N/A Fog Fog
9:54 AM 46.0 °F 44.8 °F 46.0 °F 100% 30.26 in 0.2 mi SSE 3.5 mph - N/A Fog Fog
10:21 AM 48.2 °F - 48.2 °F 100% 30.27 in 0.8 mi Calm Calm - N/A   Mist
10:24 AM 48.2 °F - 48.2 °F 100% 30.27 in 1.8 mi Calm Calm - N/A   Mostly Cloudy
10:26 AM 48.2 °F - 48.2 °F 100% 30.27 in 3.0 mi Calm Calm - N/A   Mostly Cloudy
10:36 AM 50.0 °F - 50.0 °F 100% 30.27 in 10.0 mi Calm Calm - N/A   Clear
10:54 AM 53.1 °F - 52.0 °F 96% 30.24 in 10.0 mi South 3.5 mph - N/A   Clear
11:54 AM 61.0 °F - 52.0 °F 72% 30.22 in 10.0 mi SSE 9.2 mph - N/A   Clear
12:54 PM 64.0 °F - 52.0 °F 65% 30.19 in 10.0 mi South 9.2 mph 16.1 mph N/A   Clear
1:54 PM 66.0 °F - 52.0 °F 60% 30.17 in 10.0 mi South 11.5 mph - N/A   Clear
2:54 PM 66.9 °F - 53.1 °F 61% 30.15 in 10.0 mi SSE 9.2 mph - N/A   Clear
3:54 PM 66.9 °F - 52.0 °F 59% 30.15 in 10.0 mi SSE 9.2 mph - N/A   Clear
4:54 PM 66.0 °F - 52.0 °F 60% 30.16 in 10.0 mi Variable 3.5 mph - N/A   Clear
5:54 PM 64.0 °F - 53.1 °F 67% 30.16 in 10.0 mi South 6.9 mph - N/A   Clear
6:54 PM 62.1 °F - 53.1 °F 72% 30.16 in 10.0 mi SSE 8.1 mph - N/A   Clear
7:54 PM 60.1 °F - 53.1 °F 78% 30.19 in 10.0 mi South 4.6 mph - N/A   Clear
8:54 PM 57.0 °F - 52.0 °F 83% 30.20 in 10.0 mi Calm Calm - N/A   Clear
9:54 PM 57.0 °F - 52.0 °F 83% 30.20 in 10.0 mi South 3.5 mph - N/A   Clear
10:54 PM 55.0 °F - 52.0 °F 89% 30.21 in 10.0 mi SSE 4.6 mph - N/A   Clear
11:23 PM 53.6 °F - 51.8 °F 94% 30.23 in 10.0 mi SSE 4.6 mph - N/A   Mostly Cloudy
11:54 PM 54.0 °F - 53.1 °F 97% 30.19 in 10.0 mi Calm Calm - N/A   Overcast